Total_Precipitation_Accumulation
0.01 0.02 0.02 0.02 -0.02 -0.02 -0.03 -0.04 -0.04 -0.04 -0.04 -0.02 -0.03 -0.03 -0.03 -0.05 -0.04 -0.03 -0.03 -0.04 -0.03 -0.03 -0.03 -0.04 -0.04 -0.03 -0.03 -0.03 -0.01 -0.01 0.00 0.00 -0.00 -0.00 -0.00 0.01 0.01 0.01 0.01 0.01 0.03 0.02 0.02 0.01 0.01 0.01 -0.00 -0.02 -0.02 -0.02 0.03 0.09 0.05 0.02 0.02 0.03 0.03 0.03 0.03 0.05 -0.01 -0.01 -0.01 -0.01 -0.02 -0.02 -0.02 -0.01 0.01
0.01 0.01 0.01 0.00 -0.02 -0.02 -0.01 -0.01 -0.00 -0.00 0.00 0.00 0.00 -0.02 -0.02 -0.03 -0.04 -0.06 -0.06 -0.09 -0.09 -0.06 -0.06 -0.06 -0.05 -0.04 -0.04 -0.03 -0.01 -0.01 -0.01 -0.02 -0.01 -0.01 -0.01 0.01 0.01 0.01 0.01 0.02 0.04 0.02 0.02 0.01 0.01 0.01 0.01 0.00 0.13 0.13 0.16 0.11 0.05 0.01 0.01 0.02 0.01 0.01 0.01 -0.00 0.02 0.01 0.01 0.01 -0.01 -0.01 -0.01 -0.02 0.00
0.01 0.01 0.01 0.01 0.00 0.00 -0.01 -0.00 0.00 0.00 0.00 0.00 0.00 0.00 0.00 -0.00 -0.02 -0.04 -0.04 -0.05 -0.04 -0.03 -0.03 -0.08 -0.08 -0.07 -0.07 -0.07 -0.05 -0.05 -0.07 -0.04 -0.03 -0.02 -0.02 0.01 0.02 0.02 0.02 0.03 0.05 0.01 0.01 0.01 0.03 0.03 0.04 0.06 0.12 0.12 0.04 0.00 -0.02 0.00 0.00 0.02 0.02 0.01 0.01 0.01 0.12 0.08 0.08 0.05 0.03 0.03 0.02 0.00 0.02
0.01 0.01 0.01 0.00 -0.00 -0.00 -0.00 0.01 0.01 0.01 -0.00 -0.00 -0.00 -0.01 -0.01 -0.03 -0.01 0.01 0.01 0.02 0.01 -0.00 -0.00 -0.12 -0.14 -0.12 -0.12 -0.11 -0.13 -0.13 -0.12 -0.08 -0.04 -0.03 -0.03 0.00 0.03 0.03 0.03 0.04 0.04 0.02 0.02 0.02 0.07 0.07 0.13 0.08 0.06 0.06 0.01 0.01 -0.00 0.01 0.01 0.02 0.05 0.07 0.07 0.18 0.17 0.15 0.15 0.07 0.06 0.06 0.05 0.05 0.22
0.01 0.00 0.00 0.01 0.01 0.01 0.01 0.01 0.01 0.01 -0.01 -0.02 -0.04 -0.04 -0.04 -0.02 0.03 0.03 0.03 0.02 -0.00 -0.07 -0.07 -0.20 -0.21 -0.17 -0.17 -0.17 -0.17 -0.17 -0.13 -0.08 -0.04 -0.01 -0.01 0.01 0.06 0.05 0.05 0.05 0.04 0.02 0.02 0.03 0.06 0.06 0.09 0.04 0.05 0.05 0.01 0.01 0.01 0.01 0.01 0.03 0.10 0.13 0.13 0.17 0.16 0.14 0.14 0.14 0.17 0.17 0.19 0.17 0.46
0.01 0.01 0.01 0.01 0.01 0.01 0.01 -0.02 -0.04 -0.04 -0.09 -0.06 -0.02 -0.01 -0.01 0.00 0.02 -0.05 -0.05 -0.09 -0.09 -0.11 -0.11 -0.21 -0.20 -0.19 -0.19 -0.19 -0.19 -0.19 -0.11 -0.06 -0.01 0.01 0.01 0.03 0.05 0.05 0.05 0.05 0.02 0.02 0.02 0.02 0.02 0.02 0.01 0.02 0.04 0.04 0.06 0.01 -0.01 0.03 0.03 0.12 0.18 0.16 0.16 0.28 0.30 0.33 0.33 0.32 0.30 0.30 0.35 0.41 0.57
0.01 0.01 0.01 0.01 0.01 0.01 -0.02 -0.04 -0.06 -0.06 -0.01 0.01 0.01 0.01 0.01 0.01 -0.06 -0.05 -0.05 -0.03 -0.02 -0.04 -0.04 -0.21 -0.20 -0.18 -0.18 -0.20 -0.19 -0.19 -0.14 -0.04 0.01 0.03 0.03 0.03 0.04 0.06 0.06 0.04 0.02 0.01 0.01 0.03 0.01 0.01 0.06 0.04 -0.00 -0.00 -0.02 0.04 0.15 0.27 0.27 0.36 0.31 0.35 0.35 0.73 0.71 0.57 0.57 0.51 0.44 0.44 0.56 0.55 0.27
0.01 0.01 0.01 0.01 0.01 0.01 0.01 0.01 0.01 0.01 0.02 0.02 0.02 0.01 0.01 0.01 0.01 0.01 0.01 0.01 -0.02 -0.09 -0.09 -0.16 -0.16 -0.16 -0.16 -0.18 -0.20 -0.20 -0.10 -0.02 0.01 0.03 0.03 0.03 0.03 0.05 0.05 0.03 0.01 0.02 0.02 0.03 0.04 0.04 0.08 0.03 -0.00 -0.00 0.01 0.05 0.40 0.52 0.52 0.48 0.32 0.84 0.84 0.98 0.67 0.48 0.48 0.38 0.27 0.27 0.32 0.39 0.02
0.01 0.01 0.01 0.01 0.01 0.01 0.01 0.01 0.01 0.01 0.02 0.02 0.02 0.02 0.02 0.01 0.01 0.01 0.01 -0.01 -0.09 -0.11 -0.11 -0.13 -0.13 -0.12 -0.12 -0.13 -0.11 -0.11 -0.05 -0.03 -0.02 -0.02 -0.02 -0.01 0.02 0.04 0.04 0.02 0.01 0.02 0.02 0.05 -0.02 -0.02 0.11 0.10 0.11 0.11 0.21 0.37 0.55 0.35 0.35 0.32 0.40 1.22 1.22 1.00 0.28 0.20 0.20 0.17 0.13 0.13 0.08 -0.01 -0.03
0.01 0.01 0.01 0.01 0.01 0.01 0.01 0.01 0.01 0.01 0.01 0.01 0.01 0.01 0.01 0.01 -0.03 -0.06 -0.06 -0.09 -0.08 -0.09 -0.09 -0.11 -0.08 -0.05 -0.05 -0.04 -0.04 -0.04 -0.03 -0.02 -0.02 -0.02 -0.02 0.01 0.03 0.04 0.04 0.02 0.01 0.01 0.01 0.02 -0.01 -0.01 0.08 0.17 0.39 0.39 0.49 0.35 0.30 0.35 0.35 0.67 1.15 0.98 0.98 0.57 0.36 0.31 0.31 0.29 0.20 0.20 0.09 0.07 -0.01
0.01 0.01 0.01 0.01 0.01 0.01 0.01 0.00 -0.01 -0.01 0.01 0.02 0.01 0.01 0.01 -0.00 -0.08 -0.13 -0.13 -0.10 -0.07 -0.06 -0.06 -0.06 -0.02 0.00 0.00 0.01 -0.00 -0.00 -0.01 -0.01 0.02 0.02 0.02 0.04 0.05 0.04 0.04 0.03 0.02 0.03 0.03 0.05 0.00 0.00 -0.03 0.23 0.27 0.27 0.15 0.20 0.34 0.48 0.48 1.12 0.62 0.58 0.58 0.54 0.44 0.45 0.45 0.56 0.59 0.59 0.34 0.30 0.10
0.01 0.01 0.01 0.00 0.01 0.01 0.01 0.01 0.00 0.00 0.01 0.02 0.02 0.01 0.01 -0.01 -0.04 -0.03 -0.03 -0.02 -0.02 -0.02 -0.02 -0.02 0.01 0.02 0.02 0.01 0.00 0.00 -0.01 -0.00 0.03 0.04 0.04 0.06 0.06 0.04 0.04 0.04 0.04 0.04 0.04 0.07 0.02 0.02 0.00 0.12 0.13 0.13 0.17 0.31 0.52 0.80 0.80 0.72 0.38 0.37 0.37 0.33 0.24 0.18 0.18 0.27 0.43 0.43 0.49 0.21 0.20
0.00 0.00 0.00 0.01 0.01 0.01 0.01 0.00 0.01 0.01 0.01 0.01 0.02 0.00 0.00 -0.03 -0.03 -0.00 -0.00 -0.01 -0.02 -0.02 -0.02 -0.02 -0.02 0.01 0.01 0.02 0.01 0.01 -0.01 -0.02 0.04 0.05 0.05 0.07 0.07 0.06 0.06 0.05 0.04 0.09 0.09 0.11 0.07 0.07 -0.03 0.01 0.17 0.17 0.33 0.54 0.55 0.57 0.57 0.16 0.16 0.13 0.13 0.10 0.07 0.06 0.06 0.06 0.07 0.07 -0.04 -0.01 0.09
0.00 0.00 0.00 0.01 0.01 0.01 0.01 0.00 0.01 0.01 0.01 0.02 0.01 -0.01 -0.01 -0.03 -0.01 0.00 0.00 -0.00 -0.01 -0.01 -0.01 -0.01 -0.01 -0.00 -0.00 0.01 0.00 0.00 -0.01 -0.01 -0.02 0.06 0.06 0.08 0.08 0.09 0.09 0.09 0.08 0.14 0.14 0.12 0.01 0.01 -0.10 0.00 0.16 0.16 0.29 0.35 0.36 0.24 0.24 0.09 0.08 0.08 0.08 0.07 0.05 0.05 0.05 0.04 0.02 0.02 -0.07 -0.08 -0.07
0.00 0.00 0.00 0.01 0.01 0.01 0.01 0.00 0.01 0.01 0.01 0.02 0.02 0.01 0.01 0.00 -0.03 -0.04 -0.04 -0.00 0.01 0.01 0.01 -0.01 -0.01 0.02 0.02 0.03 0.03 0.03 0.02 -0.01 -0.05 0.00 0.00 0.07 0.10 0.12 0.12 0.14 0.20 0.14 0.14 0.08 -0.06 -0.06 -0.14 -0.06 0.02 0.02 0.09 0.16 0.13 0.10 0.10 0.04 0.05 0.08 0.08 0.07 0.05 0.04 0.04 0.02 0.00 0.00 -0.06 -0.11 -0.11
0.00 0.01 0.01 0.01 0.02 0.02 0.02 0.01 0.02 0.02 0.02 0.02 0.02 0.02 0.02 -0.01 -0.08 -0.13 -0.13 -0.07 0.01 0.01 0.01 0.00 0.00 0.03 0.03 0.03 0.03 0.03 0.01 -0.01 -0.01 0.01 0.01 0.08 0.11 0.14 0.14 0.19 0.24 0.21 0.21 0.11 -0.10 -0.10 -0.24 -0.16 -0.06 -0.06 -0.04 -0.01 0.02 0.03 0.03 0.03 0.04 0.05 0.05 0.09 0.07 0.04 0.04 0.04 0.02 0.02 -0.02 -0.07 -0.09
0.00 0.00 0.00 0.01 0.01 0.01 0.01 0.01 0.02 0.02 0.02 0.02 0.02 0.01 0.01 -0.03 -0.12 -0.22 -0.22 -0.17 -0.07 -0.00 -0.00 0.01 0.00 0.02 0.02 0.01 0.00 0.00 0.00 0.00 0.01 0.04 0.04 0.10 0.12 0.15 0.15 0.19 0.22 0.24 0.24 0.12 -0.23 -0.23 -0.40 -0.25 -0.14 -0.14 -0.07 0.02 0.02 0.04 0.04 0.03 0.04 0.03 0.03 0.03 0.22 0.15 0.15 0.10 0.16 0.16 0.15 0.18 0.19
0.00 0.00 0.00 0.01 0.01 0.01 0.02 0.01 0.02 0.02 0.02 0.02 0.02 0.02 0.02 -0.01 -0.12 -0.53 -0.53 -0.61 -0.61 -0.44 -0.44 -0.29 -0.20 -0.08 -0.08 -0.00 0.01 0.01 0.01 0.03 0.04 0.06 0.06 0.13 0.17 0.12 0.12 0.07 -0.07 -0.14 -0.14 -0.11 -0.57 -0.57 -0.55 -0.34 -0.16 -0.16 -0.07 -0.03 0.02 0.10 0.10 0.09 0.05 0.00 0.00 -0.04 -0.05 -0.02 -0.02 0.25 0.19 0.19 0.26 0.31 0.36
0.00 0.01 0.01 0.01 0.01 0.01 0.01 -0.02 0.02 0.02 0.02 0.01 0.02 0.01 0.01 -0.00 -0.13 -0.51 -0.51 -0.67 -0.80 -0.62 -0.62 -0.40 -0.31 -0.13 -0.13 0.01 0.01 0.01 0.00 0.03 0.04 0.05 0.05 0.06 0.03 0.02 0.02 -0.12 -0.31 -0.32 -0.32 -0.25 -0.45 -0.45 -0.52 -0.28 -0.08 -0.08 -0.02 0.01 0.02 0.05 0.05 0.10 0.06 0.00 0.00 -0.04 -0.06 -0.04 -0.04 -0.03 0.04 0.04 0.10 0.18 0.19
0.00 -0.00 -0.00 0.01 0.01 0.01 -0.01 -0.07 -0.01 -0.01 0.01 0.01 0.01 -0.03 -0.03 -0.09 -0.18 -0.13 -0.13 -0.31 -0.50 -0.36 -0.36 -0.17 -0.07 -0.02 -0.02 -0.01 -0.00 -0.00 -0.02 0.00 0.04 0.04 0.04 -0.04 -0.14 -0.18 -0.18 -0.32 -0.47 -0.42 -0.42 -0.32 -0.44 -0.44 -0.45 -0.17 -0.01 -0.01 0.02 0.02 0.03 0.05 0.05 0.10 0.07 0.03 0.03 -0.00 -0.04 -0.02 -0.02 -0.03 -0.03 -0.03 0.01 0.02 0.02
0.00 -0.00 -0.00 0.00 0.00 0.00 -0.03 -0.07 -0.04 -0.04 -0.01 -0.01 -0.03 -0.06 -0.06 -0.09 -0.12 -0.06 -0.06 -0.10 -0.17 -0.15 -0.15 -0.08 -0.04 -0.02 -0.02 -0.01 -0.06 -0.06 -0.08 -0.03 0.01 0.01 0.01 -0.26 -0.35 -0.38 -0.38 -0.45 -0.52 -0.39 -0.39 -0.27 -0.40 -0.40 -0.49 -0.02 0.04 0.04 0.04 0.04 0.04 0.07 0.07 0.09 0.08 0.06 0.06 0.03 -0.03 -0.01 -0.01 -0.04 -0.07 -0.07 -0.06 0.03 0.04
0.01 0.01 0.01 0.00 -0.00 -0.00 -0.03 -0.07 -0.04 -0.04 -0.00 -0.00 -0.01 -0.01 -0.01 -0.02 -0.04 -0.01 -0.01 -0.03 -0.04 -0.05 -0.05 -0.05 -0.05 -0.05 -0.05 -0.10 -0.16 -0.16 -0.23 -0.18 -0.12 -0.41 -0.41 -0.49 -0.50 -0.51 -0.51 -0.47 -0.42 -0.25 -0.25 -0.17 -0.34 -0.34 -0.34 0.04 0.07 0.07 0.06 0.06 0.05 0.05 0.05 0.06 0.08 0.09 0.09 0.06 -0.01 0.00 0.00 -0.03 -0.07 -0.07 -0.05 0.00 0.06
0.00 0.00 0.00 0.00 0.00 0.00 -0.01 -0.04 -0.10 -0.10 -0.08 -0.04 -0.01 0.00 0.00 0.01 0.01 -0.00 -0.00 -0.05 -0.07 -0.09 -0.09 -0.11 -0.12 -0.17 -0.17 -0.23 -0.34 -0.34 -0.36 -0.31 -0.47 -0.54 -0.54 -0.49 -0.46 -0.43 -0.43 -0.35 -0.26 -0.09 -0.09 -0.08 -0.24 -0.24 -0.12 0.02 0.08 0.08 0.09 0.07 0.04 0.02 0.02 0.02 0.02 0.03 0.03 0.13 0.08 0.27 0.27 0.29 0.09 0.09 0.02 0.07 0.11
-0.01 -0.01 -0.01 0.00 0.00 0.00 -0.01 -0.03 -0.13 -0.13 -0.16 -0.13 -0.08 -0.03 -0.03 -0.00 0.00 -0.01 -0.01 -0.07 -0.10 -0.12 -0.12 -0.15 -0.19 -0.34 -0.34 -0.38 -0.43 -0.43 -0.39 -0.30 -0.39 -0.38 -0.38 -0.33 -0.27 -0.25 -0.25 -0.25 -0.11 -0.01 -0.01 -0.03 -0.08 -0.08 0.02 0.06 0.07 0.07 0.09 0.07 0.02 -0.00 -0.00 -0.02 -0.02 -0.01 -0.01 0.00 0.06 0.00 0.00 0.02 0.06 0.06 0.10 0.16 0.16
-0.00 -0.00 -0.00 -0.00 0.00 0.00 -0.01 -0.03 -0.14 -0.14 -0.23 -0.25 -0.19 -0.12 -0.12 -0.05 -0.03 -0.02 -0.02 -0.06 -0.09 -0.11 -0.11 -0.19 -0.36 -0.43 -0.43 -0.36 -0.34 -0.34 -0.22 -0.24 -0.23 -0.20 -0.20 -0.18 -0.14 -0.14 -0.14 -0.14 -0.04 -0.00 -0.00 0.01 0.06 0.06 0.09 0.08 0.08 0.08 0.06 0.04 0.02 -0.01 -0.01 -0.03 -0.03 -0.02 -0.02 -0.02 -0.01 0.02 0.02 0.01 0.02 0.02 0.01 0.02 0.03
-0.00 -0.00 -0.00 -0.00 -0.00 -0.00 -0.01 -0.03 -0.13 -0.13 -0.22 -0.28 -0.29 -0.27 -0.27 -0.20 -0.15 -0.13 -0.13 -0.09 -0.09 -0.13 -0.13 -0.28 -0.32 -0.24 -0.24 -0.22 -0.20 -0.20 -0.17 -0.16 -0.14 -0.11 -0.11 -0.08 -0.06 -0.05 -0.05 -0.06 -0.04 -0.01 -0.01 0.07 0.13 0.13 0.14 0.11 0.06 0.06 0.01 0.04 0.05 0.04 0.04 0.02 0.01 -0.01 -0.01 -0.02 0.00 0.02 0.02 0.03 0.04 0.04 0.05 0.01 0.01
-0.01 -0.01 -0.01 -0.01 -0.00 -0.00 -0.01 -0.02 -0.07 -0.07 -0.10 -0.14 -0.16 -0.20 -0.20 -0.19 -0.15 -0.11 -0.11 -0.12 -0.20 -0.33 -0.33 -0.31 -0.17 -0.13 -0.13 -0.13 -0.15 -0.15 -0.11 -0.08 -0.07 -0.04 -0.04 -0.02 -0.02 -0.03 -0.03 -0.03 -0.02 0.02 0.02 0.10 0.14 0.14 0.15 0.13 0.07 0.07 0.04 0.03 0.07 0.06 0.06 0.04 0.03 0.01 0.01 -0.01 -0.03 -0.03 -0.03 -0.01 0.04 0.04 0.06 0.02 -0.02
-0.03 -0.03 -0.03 -0.02 -0.01 -0.01 -0.01 -0.02 -0.05 -0.05 -0.06 -0.07 -0.07 -0.08 -0.08 -0.11 -0.12 -0.13 -0.13 -0.14 -0.17 -0.14 -0.14 -0.09 -0.09 -0.06 -0.06 -0.06 -0.06 -0.06 -0.05 -0.02 -0.01 -0.02 -0.02 -0.02 -0.02 -0.02 -0.02 -0.01 -0.02 -0.00 -0.00 0.06 0.10 0.10 0.11 -0.00 0.01 0.01 0.04 0.04 0.04 0.06 0.06 0.05 0.01 -0.02 -0.02 -0.03 -0.08 -0.10 -0.10 -0.07 -0.04 -0.04 0.00 -0.02 -0.01
-0.04 -0.05 -0.05 -0.06 -0.05 -0.05 -0.03 -0.03 -0.07 -0.07 -0.07 -0.05 -0.04 -0.05 -0.05 -0.07 -0.09 -0.11 -0.11 -0.10 -0.03 -0.03 -0.03 -0.05 -0.01 -0.02 -0.02 -0.02 -0.03 -0.03 -0.02 -0.02 -0.02 -0.02 -0.02 -0.02 -0.02 -0.01 -0.01 -0.01 -0.01 -0.01 -0.01 0.01 -0.01 -0.01 -0.02 -0.08 -0.05 -0.05 -0.02 -0.01 -0.01 -0.01 -0.01 -0.00 0.01 -0.02 -0.02 -0.06 -0.13 -0.17 -0.17 -0.16 -0.14 -0.14 -0.10 -0.08 -0.06
-0.02 -0.04 -0.04 -0.07 -0.09 -0.09 -0.07 -0.05 -0.05 -0.05 -0.08 -0.09 -0.06 -0.06 -0.06 -0.05 -0.04 -0.03 -0.03 -0.02 -0.01 -0.01 -0.01 -0.01 -0.01 -0.02 -0.02 -0.02 -0.02 -0.02 -0.03 -0.03 -0.01 0.00 0.00 0.00 0.00 -0.01 -0.01 -0.01 -0.01 -0.02 -0.02 -0.03 -0.07 -0.07 -0.06 -0.03 -0.00 -0.00 0.00 0.02 0.01 -0.01 -0.01 -0.00 0.01 -0.01 -0.01 -0.09 -0.14 -0.23 -0.23 -0.28 -0.23 -0.23 -0.22 -0.22 -0.24
-0.04 -0.03 -0.03 -0.04 -0.06 -0.06 -0.09 -0.09 -0.04 -0.04 -0.05 -0.05 -0.06 -0.07 -0.07 -0.07 -0.05 -0.03 -0.03 -0.06 -0.06 -0.05 -0.05 -0.04 -0.04 -0.04 -0.04 -0.05 -0.04 -0.04 -0.05 -0.05 -0.03 -0.01 -0.01 -0.00 -0.00 -0.01 -0.01 -0.02 -0.03 -0.05 -0.05 -0.07 -0.09 -0.09 -0.03 -0.00 0.01 0.01 0.03 0.04 0.03 0.02 0.02 0.01 -0.00 -0.02 -0.02 -0.02 -0.05 -0.07 -0.07 -0.07 -0.13 -0.13 -0.21 -0.25 -0.25
-0.04 -0.03 -0.03 -0.05 -0.07 -0.07 -0.10 -0.11 -0.06 -0.06 -0.02 -0.02 -0.03 -0.04 -0.04 -0.05 -0.06 -0.06 -0.06 -0.05 -0.05 -0.05 -0.05 -0.05 -0.06 -0.07 -0.07 -0.07 -0.07 -0.07 -0.07 -0.06 -0.05 -0.02 -0.02 -0.01 -0.02 -0.02 -0.02 -0.04 -0.06 -0.08 -0.08 -0.08 -0.04 -0.04 -0.03 0.01 0.02 0.02 0.03 0.01 -0.00 -0.02 -0.02 -0.01 0.02 0.02 0.02 -0.02 -0.04 -0.07 -0.07 -0.12 -0.20 -0.20 -0.32 -0.35 -0.13
-0.03 -0.03 -0.03 -0.05 -0.08 -0.08 -0.11 -0.11 -0.08 -0.08 -0.06 -0.04 -0.04 -0.05 -0.05 -0.06 -0.08 -0.09 -0.09 -0.08 -0.06 -0.04 -0.04 -0.04 -0.04 -0.05 -0.05 -0.05 -0.05 -0.05 -0.05 -0.05 -0.05 -0.04 -0.04 -0.03 -0.02 -0.03 -0.03 -0.05 -0.07 -0.08 -0.08 -0.06 -0.05 -0.05 -0.04 -0.03 -0.05 -0.05 -0.08 -0.07 -0.07 -0.10 -0.10 -0.08 -0.01 -0.01 -0.01 -0.02 -0.04 -0.08 -0.08 -0.12 -0.25 -0.25 -0.31 -0.33 -0.03
-0.02 -0.02 -0.02 -0.03 -0.04 -0.04 -0.04 -0.05 -0.04 -0.04 -0.03 -0.03 -0.04 -0.04 -0.04 -0.05 -0.06 -0.07 -0.07 -0.06 -0.05 -0.04 -0.04 -0.04 -0.04 -0.04 -0.04 -0.03 -0.02 -0.02 -0.03 -0.04 -0.04 -0.03 -0.03 -0.02 -0.03 -0.03 -0.03 -0.05 -0.06 -0.05 -0.05 -0.08 -0.08 -0.08 -0.07 -0.08 -0.16 -0.16 -0.21 -0.21 -0.22 -0.28 -0.28 -0.13 -0.02 0.00 0.00 -0.01 -0.02 -0.04 -0.04 -0.15 -0.27 -0.27 -0.27 -0.17 -0.01
-0.01 -0.02 -0.02 -0.03 -0.02 -0.02 -0.02 -0.03 -0.02 -0.02 -0.02 -0.03 -0.04 -0.04 -0.04 -0.05 -0.06 -0.07 -0.07 -0.06 -0.04 -0.04 -0.04 -0.04 -0.04 -0.04 -0.04 -0.03 -0.02 -0.02 -0.02 -0.03 -0.04 -0.03 -0.03 -0.02 -0.03 -0.03 -0.03 -0.05 -0.07 -0.07 -0.07 -0.06 -0.07 -0.07 -0.09 -0.11 -0.15 -0.15 -0.23 -0.22 -0.20 -0.11 -0.11 -0.03 -0.00 0.02 0.02 0.01 -0.02 -0.06 -0.06 -0.17 -0.23 -0.23 -0.10 -0.02 -0.02
-0.02 -0.02 -0.02 -0.03 -0.03 -0.03 -0.02 -0.01 -0.01 -0.01 -0.02 -0.03 -0.03 -0.04 -0.04 -0.04 -0.05 -0.06 -0.06 -0.05 -0.03 -0.04 -0.04 -0.04 -0.04 -0.03 -0.03 -0.03 -0.02 -0.02 -0.02 -0.02 -0.03 -0.04 -0.04 -0.04 -0.03 -0.04 -0.04 -0.07 -0.08 -0.09 -0.09 -0.11 -0.14 -0.14 -0.15 -0.17 -0.18 -0.18 -0.13 -0.05 -0.03 -0.01 -0.01 0.01 -0.00 0.01 0.01 0.00 -0.02 -0.05 -0.05 -0.13 -0.14 -0.14 -0.08 -0.02 -0.01
-0.02 -0.02 -0.02 -0.02 -0.03 -0.03 -0.05 -0.01 -0.01 -0.01 -0.01 -0.02 -0.03 -0.04 -0.04 -0.05 -0.06 -0.07 -0.07 -0.04 -0.03 -0.04 -0.04 -0.04 -0.04 -0.04 -0.04 -0.04 -0.04 -0.04 -0.03 -0.02 -0.02 -0.03 -0.03 -0.03 -0.02 -0.03 -0.03 -0.06 -0.08 -0.20 -0.20 -0.22 -0.21 -0.21 -0.19 -0.19 -0.17 -0.17 -0.10 -0.06 -0.04 -0.02 -0.02 -0.01 -0.06 -0.06 -0.06 -0.07 -0.09 -0.09 -0.09 -0.08 -0.07 -0.07 -0.05 -0.03 -0.02
-0.05 -0.04 -0.04 -0.03 -0.03 -0.03 -0.05 -0.07 -0.05 -0.05 -0.04 -0.03 -0.03 -0.03 -0.03 -0.04 -0.06 -0.06 -0.06 -0.04 -0.04 -0.04 -0.04 -0.04 -0.05 -0.04 -0.04 -0.04 -0.04 -0.04 -0.04 -0.03 -0.02 -0.02 -0.02 -0.02 -0.03 -0.04 -0.04 -0.09 -0.25 -0.33 -0.33 -0.31 -0.23 -0.23 -0.19 -0.19 -0.21 -0.21 -0.14 -0.13 -0.11 -0.07 -0.07 -0.22 -0.21 -0.19 -0.19 -0.20 -0.18 -0.14 -0.14 -0.10 -0.07 -0.07 -0.05 -0.03 -0.02
-0.06 -0.08 -0.08 -0.09 -0.10 -0.10 -0.11 -0.15 -0.20 -0.20 -0.19 -0.17 -0.17 -0.17 -0.17 -0.12 -0.10 -0.09 -0.09 -0.06 -0.05 -0.05 -0.05 -0.05 -0.05 -0.05 -0.05 -0.04 -0.04 -0.04 -0.05 -0.04 -0.03 -0.04 -0.04 -0.06 -0.08 -0.08 -0.08 -0.15 -0.36 -0.38 -0.38 -0.34 -0.26 -0.26 -0.19 -0.20 -0.23 -0.23 -0.17 -0.15 -0.16 -0.19 -0.19 -0.26 -0.23 -0.20 -0.20 -0.19 -0.16 -0.13 -0.13 -0.10 -0.07 -0.07 -0.05 -0.04 -0.02
-0.06 -0.06 -0.06 -0.06 -0.09 -0.09 -0.11 -0.13 -0.14 -0.14 -0.14 -0.18 -0.20 -0.17 -0.17 -0.14 -0.15 -0.15 -0.15 -0.13 -0.11 -0.08 -0.08 -0.06 -0.07 -0.05 -0.05 -0.04 -0.04 -0.04 -0.05 -0.07 -0.07 -0.06 -0.06 -0.07 -0.10 -0.12 -0.12 -0.21 -0.29 -0.32 -0.32 -0.34 -0.30 -0.30 -0.22 -0.21 -0.21 -0.21 -0.17 -0.18 -0.23 -0.26 -0.26 -0.20 -0.19 -0.17 -0.17 -0.15 -0.14 -0.12 -0.12 -0.10 -0.08 -0.08 -0.04 -0.01 -0.00
-0.03 -0.03 -0.03 -0.04 -0.05 -0.05 -0.06 -0.10 -0.12 -0.12 -0.14 -0.15 -0.16 -0.21 -0.21 -0.25 -0.27 -0.28 -0.28 -0.26 -0.20 -0.15 -0.15 -0.11 -0.08 -0.07 -0.07 -0.05 -0.05 -0.05 -0.07 -0.11 -0.13 -0.13 -0.13 -0.14 -0.16 -0.20 -0.20 -0.24 -0.27 -0.36 -0.36 -0.39 -0.37 -0.37 -0.35 -0.30 -0.27 -0.27 -0.26 -0.24 -0.24 -0.17 -0.17 -0.17 -0.17 -0.19 -0.19 -0.19 -0.14 -0.12 -0.12 -0.08 -0.06 -0.06 -0.00 -0.00 -0.00